Location: Sevilla
(37.3933°N, 5.9839°W)
Time: 04:34:02
(UTC+02:00)

Vanguard 3 - Pass Details

Date: 29 June 2024
Orbit: 508 x 3231 km, 33.4° (Epoch: 15 July)

Event Time Altitude Azimuth Distance (km) Brightness Sun altitude
Rises 13:29:02 0° 277° (W) 5,242 11.1 71.0°
Reaches altitude 10° 13:33:21 10° 272° (W) 3,770 10.5 71.6°
Maximum altitude 13:41:41 44° 204° (SSW) 1,374 9.3 72.7°
Drops below altitude 10° 13:46:40 10° 132° (SE) 2,267 9.9 73.3°
Sets 13:48:42 0° 125° (SE) 2,995 10.3 73.5°
